Location: Cointrin
(46.2167°N, 6.1167°E)
Time: 12:07:23
(UTC+00:00)

AO-85 - Pass Details

Date: 13 December 2023
Orbit: 516 x 753 km, 64.8° (Epoch: 04 January)

Event Time Altitude Azimuth Distance (km) Brightness Sun altitude
Rises 19:34:01 0° 309° (NW) 2,937 ? -37.8°
Reaches altitude 10° 19:36:49 10° 292° (WNW) 2,067 ? -38.2°
Enters shadow 19:38:28 16° 273° (W) 1,715 ? -38.5°
